K1ADM Weather Reports


time (UTC)temp
F
wind
direction
speed
knots
gust
knots
rain 1hr
in
rain 24hr
in
rain mn
in
humidity
%
barometer
mb
20260505200501 67 180 6.1 6.1 0.00 0.00 0.00 58 1006.6
20260505200002 67 180 6.1 6.1 0.00 0.00 0.00 58 1006.6
20260505195502 67 180 6.1 6.1 0.00 0.00 0.00 58 1006.6
20260505195002 67 180 6.1 6.1 0.00 0.00 0.00 58 1006.6
20260505194502 67 180 6.1 6.1 0.00 0.00 0.00 58 1006.6
20260505194002 67 180 6.1 6.1 0.00 0.00 0.00 58 1006.6
20260505193002 67 180 6.1 6.1 0.00 0.00 0.00 58 1006.6
20260505192002 67 180 6.1 6.1 0.00 0.00 0.00 58 1006.6
20260505191002 67 180 6.1 6.1 0.00 0.00 0.00 58 1006.6
20260505190501 67 180 6.1 6.1 0.00 0.00 0.00 58 1006.6
20260505190002 67 180 6.1 6.1 0.00 0.00 0.00 58 1006.6
20260505185502 67 180 6.1 6.1 0.00 0.00 0.00 58 1006.6
20260505185002 67 180 6.1 6.1 0.00 0.00 0.00 58 1006.6
20260505184002 67 180 6.1 6.1 0.00 0.00 0.00 58 1006.6
20260505183502 67 180 6.1 6.1 0.00 0.00 0.00 58 1006.6
20260505182502 67 180 6.1 6.1 0.00 0.00 0.00 58 1006.6
20260505181502 67 180 6.1 6.1 0.00 0.00 0.00 58 1006.6
20260505181002 67 180 6.1 6.1 0.00 0.00 0.00 58 1006.6
20260505180502 67 180 6.1 6.1 0.00 0.00 0.00 58 1006.6
20260505175502 67 180 6.1 6.1 0.00 0.00 0.00 58 1006.6
20260505175002 67 180 6.1 6.1 0.00 0.00 0.00 58 1006.6
20260505174502 67 180 6.1 6.1 0.00 0.00 0.00 58 1006.6
20260505174002 67 180 6.1 6.1 0.00 0.00 0.00 58 1006.6
20260505173502 67 180 6.1 6.1 0.00 0.00 0.00 58 1006.6
20260505173003 67 180 6.1 6.1 0.00 0.01 0.00 58 1006.6
20260505172502 67 180 6.1 6.1 0.00 0.01 0.00 58 1006.6
20260505172002 67 180 6.1 6.1 0.00 0.01 0.00 58 1006.6
20260505171502 67 180 6.1 6.1 0.00 0.01 0.00 58 1006.6
20260505171002 67 180 6.1 6.1 0.00 0.01 0.00 58 1006.6
20260505170502 67 180 6.1 6.1 0.00 0.01 0.00 58 1006.6
20260505170003 67 180 6.1 6.1 0.00 0.01 0.00 58 1006.6
20260505165502 67 180 6.1 6.1 0.00 0.01 0.00 58 1006.6
20260505165002 67 180 6.1 6.1 0.00 0.01 0.00 58 1006.6
20260505164502 67 180 6.1 6.1 0.00 0.01 0.00 58 1006.6
20260505163502 67 180 6.1 6.1 0.00 0.01 0.00 58 1006.6
20260505163002 67 180 6.1 6.1 0.00 0.01 0.00 58 1006.6
20260505162502 67 180 6.1 6.1 0.00 0.01 0.00 58 1006.6
20260505162002 67 180 6.1 6.1 0.00 0.01 0.00 58 1006.6
20260505161002 67 180 6.1 6.1 0.00 0.01 0.00 58 1006.6
20260505160503 67 180 6.1 6.1 0.00 0.01 0.00 58 1006.6
20260505152503 67 180 6.1 6.1 0.00 0.01 0.00 58 1006.6
20260505152002 67 180 6.1 6.1 0.00 0.01 0.00 58 1006.6
20260505151502 67 180 6.1 6.1 0.00 0.01 0.00 58 1006.6
20260505140503 67 219 4.3 8.7 0.00 0.01 0.00 58 1006.6
20260505125002 62 294 2.6 4.3 0.00 0.01 0.00 64 1006.8
20260505124503 63 190 1.7 7.0 0.00 0.01 0.00 64 1006.8
20260505124002 63 77 2.6 6.1 0.00 0.01 0.00 64 1006.8
20260505123502 62 68 1.7 5.2 0.00 0.01 0.00 64 1006.7
20260505123003 62 215 2.6 4.3 0.00 0.01 0.00 66 1006.7
20260505122502 60 254 1.7 5.2 0.00 0.01 0.00 67 1006.9
20260505122003 60 284 3.5 5.2 0.00 0.01 0.00 68 1006.9
20260505121503 60 324 1.7 2.6 0.00 0.01 0.00 68 1006.9
20260505121002 60 238 3.5 5.2 0.00 0.01 0.00 67 1007.1
20260505120502 60 260 2.6 4.3 0.00 0.01 0.00 67 1007.1
20260505115503 59 169 4.3 5.2 0.00 0.01 0.00 69 1007.0
20260505115002 58 255 3.5 5.2 0.00 0.01 0.00 70 1007.1
20260505114003 57 176 2.6 5.2 0.00 0.01 0.00 72 1007.1
20260505113503 57 119 1.7 4.3 0.00 0.01 0.00 73 1007.1
20260505113003 56 313 2.6 4.3 0.00 0.01 0.00 74 1007.1
20260505112503 56 171 2.6 4.3 0.00 0.01 0.00 74 1007.2
20260505112003 55 122 2.6 6.1 0.00 0.01 0.00 74 1007.2
20260505111503 54 206 1.7 4.3 0.00 0.01 0.00 76 1007.2
20260505111003 53 252 0.9 5.2 0.00 0.01 0.00 77 1007.1
20260505110503 53 213 1.7 2.6 0.00 0.01 0.00 79 1007.1
20260505102002 50 158 0.9 2.6 0.00 0.01 0.00 81 1007.0
20260505101503 50 184 1.7 2.6 0.00 0.01 0.00 81 1007.0
20260505101002 49 204 0.9 4.3 0.00 0.01 0.00 82 1007.0
20260505100503 48 207 0.9 2.6 0.00 0.01 0.00 82 1007.0
20260505100002 49 236 0.0 0.9 0.00 0.01 0.00 82 1006.9
20260505095503 48 180 0.0 0.0 0.00 0.01 0.00 82 1006.9
20260505095002 48 191 0.0 1.7 0.00 0.01 0.00 82 1006.9
20260505094503 48 189 0.0 1.7 0.00 0.01 0.00 82 1006.9
20260505094002 48 186 0.0 0.0 0.00 0.01 0.00 82 1006.9
20260505093503 48 135 0.0 1.7 0.00 0.01 0.00 82 1006.9
20260505093003 48 202 0.9 1.7 0.00 0.01 0.00 82 1006.9
20260505092502 49 180 1.7 2.6 0.00 0.01 0.00 82 1006.9
20260505090503 50 167 1.7 1.7 0.00 0.01 0.00 80 1007.1
20260505090002 50 144 0.9 1.7 0.00 0.01 0.00 79 1007.1
20260505085503 50 170 1.7 2.6 0.00 0.01 0.00 79 1007.1
20260505085003 50 189 0.9 1.7 0.00 0.01 0.00 79 1007.1
20260505084503 50 190 0.9 2.6 0.00 0.01 0.00 79 1007.1
20260505084003 50 176 1.7 2.6 0.00 0.01 0.00 79 1007.1
20260505083503 50 197 1.7 1.7 0.00 0.01 0.00 79 1007.1
20260505083004 50 180 1.7 1.7 0.00 0.01 0.00 79 1007.1
20260505082503 50 180 1.7 1.7 0.00 0.01 0.00 79 1006.9
20260505082002 50 189 1.7 1.7 0.00 0.01 0.00 79 1006.9
20260505081503 50 193 1.7 1.7 0.00 0.01 0.00 79 1006.9
20260505080503 50 193 1.7 1.7 0.00 0.01 0.00 78 1007.1
20260505080003 51 171 1.7 1.7 0.00 0.01 0.00 78 1007.0
20260505075503 51 180 1.7 1.7 0.00 0.01 0.00 77 1007.0
20260505075002 51 195 1.7 1.7 0.00 0.01 0.00 77 1007.1
20260505074503 51 195 0.9 1.7 0.00 0.01 0.00 77 1007.1
20260505074003 51 229 1.7 1.7 0.00 0.01 0.00 76 1007.1
20260505073503 51 187 1.7 1.7 0.00 0.01 0.00 76 1007.1
20260505073003 51 214 1.7 1.7 0.00 0.01 0.00 76 1007.1
20260505072503 51 222 1.7 2.6 0.00 0.01 0.00 76 1007.2
20260505072003 51 195 1.7 2.6 0.00 0.01 0.00 76 1007.2
20260505071503 51 202 1.7 1.7 0.00 0.01 0.00 76 1007.2
20260505071003 51 211 1.7 1.7 0.00 0.01 0.00 76 1007.1
20260505070002 51 212 1.7 1.7 0.00 0.01 0.00 75 1007.1
20260505065503 52 248 0.0 0.9 0.00 0.01 0.00 74 1007.1
20260505064003 52 216 1.7 1.7 0.00 0.01 0.00 74 1007.1
20260505063503 53 198 1.7 2.6 0.00 0.01 0.00 74 1007.0
20260505063003 53 180 1.7 1.7 0.00 0.01 0.00 74 1007.0
20260505062503 53 192 1.7 1.7 0.00 0.01 0.00 74 1007.0
20260505062003 53 186 1.7 2.6 0.00 0.01 0.00 74 1007.0
20260505061502 53 251 1.7 2.6 0.00 0.01 0.00 74 1007.0
20260505061003 53 196 1.7 2.6 0.00 0.01 0.00 74 1007.0
20260505055503 52 195 1.7 2.6 0.00 0.01 0.00 75 1007.0
20260505055004 52 230 2.6 5.2 0.00 0.01 0.00 76 1007.0
20260505054504 51 228 1.7 2.6 0.00 0.01 0.00 77 1007.1
20260505054003 51 202 0.9 1.7 0.00 0.01 0.00 77 1007.1
20260505053504 51 233 0.0 0.0 0.00 0.01 0.00 78 1007.0
20260505053003 51 218 0.0 0.0 0.00 0.01 0.00 78 1007.0
20260505052503 51 208 0.0 0.0 0.00 0.01 0.00 78 1006.8
20260505052003 50 191 0.0 0.0 0.00 0.01 0.00 79 1006.8
20260505051503 50 341 0.0 0.0 0.00 0.01 0.00 79 1006.7
20260505051003 50 180 0.0 0.0 0.00 0.01 0.00 79 1006.6
20260505050503 50 132 0.0 1.7 0.00 0.01 0.00 80 1006.6
20260505041504 50 244 0.0 1.7 0.00 0.01 0.00 80 1006.5
20260505040504 50 345 0.9 2.6 0.00 0.01 0.00 80 1006.5
20260505040004 50 228 1.7 1.7 0.00 0.01 0.00 79 1006.4
20260505035503 50 235 1.7 2.6 0.00 0.01 0.01 79 1006.4
20260505035003 50 204 0.0 0.0 0.00 0.01 0.01 79 1006.2
20260505034503 50 225 0.0 0.9 0.00 0.01 0.01 79 1006.2
20260505033003 50 156 1.7 1.7 0.00 0.01 0.01 78 1006.3
20260505032503 51 202 1.7 1.7 0.00 0.01 0.01 78 1006.3
20260505032003 51 238 1.7 2.6 0.00 0.01 0.01 77 1006.3
20260505031504 51 222 1.7 1.7 0.00 0.01 0.01 77 1006.3
20260505031003 51 202 1.7 1.7 0.00 0.01 0.01 77 1006.2
20260505030504 51 235 0.0 1.7 0.00 0.01 0.01 76 1006.2
20260505030003 51 212 0.9 4.3 0.00 0.01 0.01 76 1006.2
20260505025003 52 202 0.9 2.6 0.00 0.01 0.01 75 1006.2
20260505024504 52 202 1.7 4.3 0.00 0.01 0.01 75 1006.2
20260505024004 53 195 1.7 2.6 0.00 0.01 0.01 75 1006.2
20260505023003 53 189 2.6 5.2 0.00 0.01 0.01 74 1006.3
20260505022503 53 183 1.7 2.6 0.00 0.01 0.01 73 1006.2
20260505022003 54 181 1.7 4.3 0.00 0.01 0.01 73 1006.2
20260505021504 54 190 1.7 2.6 0.00 0.01 0.01 72 1006.2
20260505021003 54 180 1.7 4.3 0.00 0.01 0.01 72 1006.1
20260505020003 55 144 1.7 2.6 0.00 0.01 0.01 71 1006.2
20260505015504 55 170 1.7 4.3 0.00 0.01 0.01 70 1006.2
20260505015004 55 166 2.6 5.2 0.00 0.01 0.01 70 1006.1
20260505014501 55 167 1.7 1.7 0.00 0.01 0.01 70 1006.1
20260505014002 55 130 1.7 2.6 0.00 0.01 0.01 70 1006.1
20260505013501 56 155 0.9 2.6 0.00 0.01 0.01 70 1006.0
20260505013002 56 166 0.0 1.7 0.00 0.01 0.01 69 1006.0
20260505012502 56 101 0.9 2.6 0.00 0.01 0.01 69 1005.8
20260505012001 56 211 1.7 2.6 0.00 0.01 0.01 69 1005.8
20260505010501 57 137 1.7 4.3 0.00 0.01 0.01 68 1005.9
20260505010001 57 140 0.9 2.6 0.00 0.01 0.01 68 1005.9
20260505005501 57 163 0.9 2.6 0.00 0.01 0.01 68 1005.9
20260505005002 57 180 1.7 2.6 0.00 0.01 0.01 68 1005.5
20260505004501 57 246 2.6 4.3 0.00 0.01 0.01 68 1005.5
20260505004001 57 213 1.7 1.7 0.00 0.01 0.01 67 1005.5
20260505003502 58 218 0.0 1.7 0.00 0.01 0.01 65 1005.4
20260505003001 58 191 1.7 1.7 0.00 0.01 0.01 65 1005.4
20260505002501 58 145 1.7 4.3 0.00 0.01 0.01 64 1005.1
20260505002002 59 168 1.7 4.3 0.00 0.01 0.01 63 1005.1
20260505001501 59 179 0.9 2.6 0.00 0.01 0.01 63 1005.1
20260505001001 59 170 0.9 1.7 0.00 0.01 0.01 61 1005.0
20260505000502 60 225 0.9 1.7 0.00 0.01 0.01 60 1005.0
20260505000002 60 258 1.7 1.7 0.00 0.01 0.01 58 1005.0
20260504235502 60 192 0.9 1.7 0.00 0.01 0.01 57 1005.0
20260504235001 60 180 0.9 1.7 0.00 0.01 0.01 57 1004.8
20260504234502 61 180 0.0 0.9 0.00 0.01 0.01 56 1004.8
20260504234002 61 158 0.9 1.7 0.00 0.01 0.01 57 1004.8
20260504233501 61 180 0.9 1.7 0.00 0.01 0.01 57 1004.6
20260504232001 63 180 0.0 0.0 0.00 0.01 0.01 55 1004.6
20260504231502 63 180 0.0 0.0 0.00 0.01 0.01 54 1004.6
20260504230502 63 180 0.0 0.0 0.00 0.01 0.01 55 1004.4
20260504225501 63 180 0.0 0.0 0.00 0.01 0.01 54 1004.3
20260504225002 64 195 0.0 0.9 0.00 0.01 0.01 53 1004.4
20260504224502 64 204 0.9 2.6 0.00 0.01 0.01 53 1004.4
20260504224001 64 253 0.0 4.3 0.00 0.01 0.01 52 1004.4
20260504223501 65 50 0.0 0.9 0.00 0.01 0.01 53 1004.4
20260504223002 65 292 0.0 1.7 0.00 0.01 0.01 54 1004.4
20260504222501 65 346 1.7 2.6 0.00 0.01 0.01 52 1004.3
20260504222002 65 162 0.9 0.9 0.00 0.01 0.01 52 1004.3
20260504221501 66 274 0.9 1.7 0.00 0.01 0.01 51 1004.3
20260504221001 66 237 0.0 0.9 0.00 0.01 0.01 52 1004.4
20260504220502 65 183 2.6 2.6 0.00 0.01 0.01 51 1004.4
20260504220002 65 252 0.9 1.7 0.00 0.01 0.01 52 1004.4
20260504215501 64 261 0.9 2.6 0.00 0.01 0.01 55 1004.4
20260504215001 64 217 1.7 4.3 0.00 0.01 0.01 54 1004.5
20260504214002 64 268 2.6 7.0 0.00 0.01 0.01 52 1004.5
20260504213001 65 270 4.3 7.8 0.00 0.01 0.01 51 1004.5
20260504212502 64 273 1.7 7.0 0.00 0.01 0.01 53 1004.3
20260504212002 64 293 4.3 7.8 0.00 0.01 0.01 51 1004.3
20260504211002 65 329 4.3 10.4 0.00 0.01 0.01 51 1004.1
20260504210502 65 292 2.6 6.1 0.00 0.01 0.01 52 1004.1
20260504210002 65 282 5.2 6.1 0.00 0.01 0.01 51 1004.1
20260504205001 65 270 8.7 12.2 0.00 0.01 0.01 51 1004.1
20260504204502 66 274 5.2 8.7 0.00 0.01 0.01 53 1004.2
20260504203501 64 22 6.1 8.7 0.00 0.01 0.01 52 1004.1
20260504203002 64 292 7.8 13.0 0.00 0.01 0.01 52 1004.1
20260504202502 64 275 7.8 12.2 0.00 0.01 0.01 52 1004.2
20260504202002 64 290 7.8 13.9 0.00 0.01 0.01 52 1004.2
20260504201002 64 280 6.1 12.2 0.00 0.01 0.01 52 1004.1